Wetterdaten: aktuell Mittwoch, 08.04.2020 04:39
Datum Zeit Temperatur Bodentemp. Luftfeuchte Luftdruck Regen Wind Richtung Richtung Sonnenschein
08.04.2020 04:39 10,0 C -0,9 C 70 % 1027 hPa 0,0 l/m 4,3 km/h (1 Bft) O 100 0 min
08.04.2020 04:34 10,0 C -0,9 C 70 % 1027 hPa 0,0 l/m 4,6 km/h (1 Bft) O 100 0 min
08.04.2020 04:28 10,0 C -0,9 C 70 % 1027 hPa 0,0 l/m 0,0 km/h (0 Bft) O 100 0 min
08.04.2020 04:24 10,0 C -0,9 C 70 % 1027 hPa 0,0 l/m 0,0 km/h (0 Bft) O 100 0 min
08.04.2020 04:19 10,0 C -0,9 C 70 % 1027 hPa 0,0 l/m 0,0 km/h (0 Bft) O 100 0 min
08.04.2020 04:13 10,0 C -0,6 C 70 % 1027 hPa 0,0 l/m 0,0 km/h (0 Bft) O 100 0 min
08.04.2020 04:09 10,0 C -0,6 C 69 % 1027 hPa 0,0 l/m 0,0 km/h (0 Bft) O 100 0 min
08.04.2020 04:04 13,2 C -0,6 C 45 % 1027 hPa 0,0 l/m 0,0 km/h (0 Bft) O 100 0 min
08.04.2020 03:58 13,2 C -0,6 C 45 % 1027 hPa 0,0 l/m 0,0 km/h (0 Bft) O 100 0 min
08.04.2020 03:53 13,2 C -0,8 C 45 % 1028 hPa 0,0 l/m 0,0 km/h (0 Bft) O 100 0 min
08.04.2020 03:49 13,2 C -0,2 C 45 % 1028 hPa 0,0 l/m 0,0 km/h (0 Bft) O 100 0 min
08.04.2020 03:44 13,2 C -1,2 C 45 % 1028 hPa 0,0 l/m 0,0 km/h (0 Bft) O 100 0 min
08.04.2020 03:38 13,2 C -1,2 C 45 % 1028 hPa 0,0 l/m 2,8 km/h (1 Bft) O 100 0 min
08.04.2020 03:34 13,2 C -1,2 C 45 % 1028 hPa 0,0 l/m 4,0 km/h (1 Bft) O 100 0 min
08.04.2020 03:29 13,2 C -1,2 C 45 % 1028 hPa 0,0 l/m 4,0 km/h (1 Bft) O 100 0 min
08.04.2020 03:23 13,2 C -1,2 C 45 % 1028 hPa 0,0 l/m 4,0 km/h (1 Bft) O 100 0 min
08.04.2020 03:19 13,2 C -0,8 C 45 % 1028 hPa 0,0 l/m 4,0 km/h (1 Bft) O 100 0 min
08.04.2020 03:14 13,2 C -0,8 C 45 % 1028 hPa 0,0 l/m 4,0 km/h (1 Bft) O 100 0 min
08.04.2020 03:08 13,2 C -0,8 C 45 % 1028 hPa 0,0 l/m 5,4 km/h (2 Bft) O 100 0 min
08.04.2020 03:03 13,2 C -0,8 C 45 % 1028 hPa 0,0 l/m 5,4 km/h (2 Bft) O 100 0 min
08.04.2020 02:59 13,2 C -0,8 C 45 % 1028 hPa 0,0 l/m 5,4 km/h (2 Bft) O 100 0 min
08.04.2020 02:54 13,2 C -0,8 C 45 % 1028 hPa 0,0 l/m 5,6 km/h (2 Bft) O 100 0 min
08.04.2020 02:48 13,2 C -0,8 C 45 % 1028 hPa 0,0 l/m 5,6 km/h (2 Bft) O 100 0 min
08.04.2020 02:44 13,2 C 0,0 C 45 % 1028 hPa 0,0 l/m 4,1 km/h (1 Bft) O 100 0 min
08.04.2020 02:39 13,2 C 0,0 C 45 % 1028 hPa 0,0 l/m 7,4 km/h (2 Bft) O 100 0 min
08.04.2020 02:33 13,2 C 0,0 C 45 % 1028 hPa 0,0 l/m 7,4 km/h (2 Bft) O 100 0 min
08.04.2020 02:29 13,2 C 0,0 C 45 % 1028 hPa 0,0 l/m 7,4 km/h (2 Bft) O 100 0 min
08.04.2020 02:24 13,2 C -0,7 C 45 % 1028 hPa 0,0 l/m 7,4 km/h (2 Bft) O 100 0 min
08.04.2020 02:18 13,2 C -0,7 C 45 % 1028 hPa 0,0 l/m 10,5 km/h (2 Bft) O 95 0 min
08.04.2020 02:13 13,2 C -0,7 C 45 % 1028 hPa 0,0 l/m 10,5 km/h (2 Bft) O 95 0 min
08.04.2020 02:09 13,2 C -0,7 C 45 % 1028 hPa 0,0 l/m 10,5 km/h (2 Bft) O 95 0 min
08.04.2020 02:04 13,2 C -0,7 C 45 % 1028 hPa 0,0 l/m 4,7 km/h (1 Bft) O 90 0 min
08.04.2020 01:58 13,2 C -0,7 C 45 % 1028 hPa 0,0 l/m 4,7 km/h (1 Bft) O 90 0 min
08.04.2020 01:54 13,2 C -0,7 C 45 % 1028 hPa 0,0 l/m 4,7 km/h (1 Bft) O 90 0 min
08.04.2020 01:49 13,2 C -0,7 C 45 % 1028 hPa 0,0 l/m 4,7 km/h (1 Bft) O 90 0 min
08.04.2020 01:43 13,2 C -0,7 C 45 % 1028 hPa 0,0 l/m 4,7 km/h (1 Bft) O 90 0 min
08.04.2020 01:39 13,2 C -0,7 C 45 % 1028 hPa 0,0 l/m 4,7 km/h (1 Bft) O 90 0 min
08.04.2020 01:34 13,2 C -0,7 C 45 % 1028 hPa 0,0 l/m 4,7 km/h (1 Bft) O 90 0 min
08.04.2020 01:28 13,2 C -0,7 C 45 % 1028 hPa 0,0 l/m 4,7 km/h (1 Bft) O 90 0 min
08.04.2020 01:23 13,2 C -0,7 C 45 % 1028 hPa 0,0 l/m 4,7 km/h (1 Bft) O 90 0 min
08.04.2020 01:19 13,2 C -0,4 C 45 % 1028 hPa 0,0 l/m 4,7 km/h (1 Bft) O 90 0 min
08.04.2020 01:14 13,2 C -0,4 C 45 % 1029 hPa 0,0 l/m 4,7 km/h (1 Bft) O 90 0 min
08.04.2020 01:08 13,2 C -0,4 C 45 % 1029 hPa 0,0 l/m 0,0 km/h (0 Bft) O 90 0 min
08.04.2020 01:04 13,2 C -0,4 C 45 % 1029 hPa 0,0 l/m 3,7 km/h (1 Bft) O 90 0 min
08.04.2020 00:59 13,2 C -0,4 C 45 % 1029 hPa 0,0 l/m 3,7 km/h (1 Bft) O 90 0 min
08.04.2020 00:53 13,2 C -0,4 C 45 % 1029 hPa 0,0 l/m 4,0 km/h (1 Bft) O 90 0 min
08.04.2020 00:49 13,2 C -0,4 C 45 % 1029 hPa 0,0 l/m 4,0 km/h (1 Bft) O 90 0 min
08.04.2020 00:44 13,2 C 0,1 C 45 % 1029 hPa 0,0 l/m 4,0 km/h (1 Bft) O 90 0 min
08.04.2020 00:38 13,2 C 0,1 C 45 % 1029 hPa 0,0 l/m 7,3 km/h (2 Bft) O 95 0 min
_ Min-Zeit 06:39 06:19 14:53 03:58 - 05:03 - - -
Minimum _ 5,3 C -1,6 C 5 % 1027 hPa - 0,0 km/h (0 Bft) - - -
_ Max-Zeit 15:49 17:14 07:48 10:38 05:03 19:44 - - 12:29
Maximum _ 20,8 C 3,3 C 82 % 1032 hPa 0,0 l/m 13,9 km/h
O (3 Bft)
- - 6 min
Durchschnitt _ 13,5 C 0,7 C 44 % 1029 hPa #0,0 l/m 4,4 km/h (1 Bft) O - #0 min.